Вернуться в каталог

DELTA 1 DEB

АктивенSSO
NORAD 21320·DEBRIS·🇺🇸 United States

Запущен Jun 12, 1975 с Vandenberg Space Force Base

Loading…

Ближайшие Пролёты (ближайшие 24 часа)

TLE

СвежийSource: Space-Track

Эпоха: Sep 14, 2026, 14:54 UTC

1 21320U 75052AN  26257.62131883  .00000242  00000-0  28985-3 0  9994
2 21320  99.4919 136.0655 0126447 232.6497 154.9160 13.73803080767845

Отслеживайте DELTA 1 DEB в реальном времени с AllMySat

Download on the App Store